ANA1608 RJOK-RJOO

Flight info

Callsign ANA1608
Flight time 0h 33m
Altitude 17000
Route KAIFU Y403 KAINA Y753 IZUMI
Aircraft DH8D/M-SDE2E3FGRY/H

Departure

Time 2026-05-01 08:23
Airport Kochi Ryoma Airport (RJOK)

Arrival

Time 2026-05-01 08:56
Airport Osaka Itami International Airport (RJOO)
Time Latitude Longitude Altitude Speed Heading
2026-05-01 08:11 33.54635 133.67448 39 ft 0 kts 39°
2026-05-01 08:15 33.54641 133.67452 39 ft 1 kts 355°
2026-05-01 08:16 33.54644 133.67442 39 ft 0 kts 254°
2026-05-01 08:16 33.54626 133.67421 38 ft 7 kts 220°
2026-05-01 08:16 33.54565 133.67357 36 ft 14 kts 223°
2026-05-01 08:16 33.54517 133.67363 36 ft 8 kts 129°
2026-05-01 08:17 33.54476 133.67421 36 ft 10 kts 130°
2026-05-01 08:17 33.54426 133.67493 35 ft 12 kts 130°
2026-05-01 08:17 33.54369 133.67575 34 ft 13 kts 129°
2026-05-01 08:17 33.54302 133.67670 33 ft 14 kts 131°
2026-05-01 08:18 33.54235 133.67761 33 ft 14 kts 130°
2026-05-01 08:18 33.54100 133.67950 31 ft 16 kts 130°
2026-05-01 08:19 33.53951 133.68030 29 ft 3 kts 223°
2026-05-01 08:19 33.53947 133.68025 30 ft 0 kts 223°
2026-05-01 08:19 33.53946 133.68024 30 ft 0 kts 223°
2026-05-01 08:20 33.53931 133.68008 30 ft 5 kts 223°
2026-05-01 08:20 33.53896 133.67964 31 ft 8 kts 247°
2026-05-01 08:20 33.53905 133.67912 31 ft 0 kts 312°
2026-05-01 08:21 33.53948 133.67854 32 ft 19 kts 311°
2026-05-01 08:21 33.53999 133.67783 34 ft 0 kts 305°
2026-05-01 08:22 33.54151 133.67570 35 ft 79 kts 309°
2026-05-01 08:22 33.54678 133.66847 59 ft 138 kts 308°
2026-05-01 08:22 33.55378 133.65977 443 ft 153 kts 313°
2026-05-01 08:23 33.56162 133.65108 1147 ft 151 kts 313°
2026-05-01 08:23 33.57119 133.64607 1739 ft 170 kts 355°
2026-05-01 08:23 33.58202 133.65338 2152 ft 201 kts 49°
2026-05-01 08:23 33.58762 133.66956 2664 ft 215 kts 68°
2026-05-01 08:24 33.59184 133.68652 3348 ft 215 kts 67°
2026-05-01 08:24 33.59620 133.70396 3910 ft 222 kts 67°
2026-05-01 08:24 33.60056 133.72191 4534 ft 226 kts 69°
2026-05-01 08:24 33.60067 133.74081 5068 ft 237 kts 109°
2026-05-01 08:25 33.59175 133.75719 5545 ft 234 kts 135°
2026-05-01 08:25 33.58076 133.77220 5984 ft 243 kts 134°
2026-05-01 08:25 33.56970 133.78757 6547 ft 246 kts 135°
2026-05-01 08:25 33.55839 133.80322 7080 ft 248 kts 134°
2026-05-01 08:26 33.54709 133.81891 7653 ft 250 kts 135°
2026-05-01 08:26 33.53567 133.83481 8209 ft 251 kts 134°
2026-05-01 08:26 33.52423 133.85068 8688 ft 257 kts 133°
2026-05-01 08:26 33.51267 133.86678 9279 ft 256 kts 134°
2026-05-01 08:27 33.50093 133.88309 9791 ft 258 kts 134°
2026-05-01 08:27 33.48923 133.89937 10270 ft 261 kts 133°
2026-05-01 08:27 33.47751 133.91621 10814 ft 261 kts 125°
2026-05-01 08:27 33.47139 133.93666 11054 ft 263 kts 82°
2026-05-01 08:28 33.47469 133.95715 11550 ft 249 kts 64°
2026-05-01 08:28 33.47918 133.97719 12006 ft 252 kts 65°
2026-05-01 08:28 33.48367 133.99744 12430 ft 253 kts 64°
2026-05-01 08:28 33.48824 134.01807 12870 ft 254 kts 64°
2026-05-01 08:29 33.49268 134.03822 13334 ft 253 kts 63°
2026-05-01 08:29 33.49735 134.05917 13663 ft 258 kts 64°
2026-05-01 08:29 33.50188 134.07965 14058 ft 262 kts 64°
2026-05-01 08:29 33.50662 134.10098 14436 ft 262 kts 64°
2026-05-01 08:30 33.51127 134.12213 14888 ft 260 kts 63°
2026-05-01 08:30 33.51599 134.14340 15166 ft 265 kts 64°
2026-05-01 08:30 33.52063 134.16450 15579 ft 265 kts 63°
2026-05-01 08:30 33.52545 134.18619 15826 ft 270 kts 64°
2026-05-01 08:31 33.53029 134.20813 16169 ft 273 kts 64°
2026-05-01 08:31 33.53524 134.23033 16318 ft 285 kts 64°
2026-05-01 08:31 33.54058 134.25398 16362 ft 301 kts 65°
2026-05-01 08:31 33.54618 134.27904 16370 ft 315 kts 66°
2026-05-01 08:32 33.55190 134.30479 16367 ft 328 kts 67°
2026-05-01 08:32 33.55787 134.33182 16382 ft 339 kts 66°
2026-05-01 08:32 33.56399 134.35971 16452 ft 346 kts 67°
2026-05-01 08:32 33.57016 134.38788 16517 ft 353 kts 67°
2026-05-01 08:33 33.57641 134.41644 16569 ft 354 kts 68°
2026-05-01 08:33 33.58262 134.44496 16628 ft 353 kts 67°
2026-05-01 08:33 33.58879 134.47334 16668 ft 349 kts 67°
2026-05-01 08:33 33.59487 134.50140 16704 ft 344 kts 68°
2026-05-01 08:34 33.60126 134.52898 16736 ft 336 kts 62°
2026-05-01 08:34 33.61303 134.55138 16748 ft 308 kts 35°
2026-05-01 08:34 33.62835 134.56924 16751 ft 303 kts 32°
2026-05-01 08:34 33.64364 134.58661 16754 ft 303 kts 31°
2026-05-01 08:35 33.65900 134.60396 16751 ft 307 kts 31°
2026-05-01 08:35 33.67491 134.62190 16757 ft 311 kts 32°
2026-05-01 08:35 33.69068 134.63969 16765 ft 314 kts 32°
2026-05-01 08:35 33.70676 134.65785 16740 ft 318 kts 32°
2026-05-01 08:36 33.72294 134.67616 16756 ft 319 kts 33°
2026-05-01 08:36 33.73923 134.69459 16748 ft 320 kts 33°
2026-05-01 08:36 33.75548 134.71300 16737 ft 322 kts 33°
2026-05-01 08:36 33.77176 134.73146 16737 ft 322 kts 33°
2026-05-01 08:37 33.78814 134.75001 16737 ft 323 kts 33°
2026-05-01 08:37 33.80462 134.76871 16747 ft 324 kts 33°
2026-05-01 08:37 33.82112 134.78744 16739 ft 325 kts 33°
2026-05-01 08:37 33.83764 134.80620 16728 ft 326 kts 33°
2026-05-01 08:38 33.85424 134.82506 16731 ft 326 kts 33°
2026-05-01 08:38 33.87083 134.84392 16723 ft 327 kts 33°
2026-05-01 08:38 33.88745 134.86279 16732 ft 328 kts 33°
2026-05-01 08:38 33.90404 134.88167 16730 ft 329 kts 33°
2026-05-01 08:39 33.92086 134.90082 16741 ft 329 kts 34°
2026-05-01 08:39 33.93736 134.91963 16734 ft 329 kts 34°
2026-05-01 08:39 33.95420 134.93881 16732 ft 330 kts 34°
2026-05-01 08:39 33.97077 134.95772 16720 ft 330 kts 34°
2026-05-01 08:40 34.00431 134.99600 16718 ft 331 kts 34°
2026-05-01 08:40 34.02119 135.01527 16719 ft 332 kts 35°
2026-05-01 08:40 34.03787 135.03435 16717 ft 332 kts 34°
2026-05-01 08:41 34.05462 135.05350 16710 ft 332 kts 34°
2026-05-01 08:41 34.07140 135.07271 16708 ft 332 kts 35°
2026-05-01 08:41 34.08827 135.09203 16707 ft 332 kts 34°
2026-05-01 08:41 34.10506 135.11125 16703 ft 332 kts 34°
2026-05-01 08:42 34.12186 135.13051 16710 ft 332 kts 35°
2026-05-01 08:42 34.13862 135.14975 16715 ft 332 kts 34°
2026-05-01 08:42 34.15548 135.16910 16714 ft 332 kts 34°
2026-05-01 08:42 34.17239 135.18849 16641 ft 335 kts 34°
2026-05-01 08:43 34.18938 135.20795 16272 ft 336 kts 35°
2026-05-01 08:43 34.20623 135.22731 15842 ft 333 kts 35°
2026-05-01 08:43 34.22340 135.24580 15369 ft 324 kts 28°
2026-05-01 08:43 34.24140 135.26100 14931 ft 312 kts 24°
2026-05-01 08:44 34.25937 135.27557 14486 ft 303 kts 25°
2026-05-01 08:44 34.27651 135.28947 14069 ft 294 kts 24°
2026-05-01 08:44 34.29325 135.30309 13676 ft 285 kts 25°
2026-05-01 08:44 34.30941 135.31624 13278 ft 277 kts 25°
2026-05-01 08:45 34.32507 135.32907 13078 ft 260 kts 25°
2026-05-01 08:45 34.34013 135.34142 12837 ft 266 kts 24°
2026-05-01 08:45 34.35592 135.35423 12500 ft 277 kts 25°
2026-05-01 08:45 34.37216 135.36742 12130 ft 288 kts 25°
2026-05-01 08:46 34.38918 135.38124 11718 ft 298 kts 26°
2026-05-01 08:46 34.40637 135.39529 11294 ft 298 kts 26°
2026-05-01 08:46 34.42329 135.40915 10877 ft 293 kts 27°
2026-05-01 08:46 34.43968 135.42383 10439 ft 291 kts 37°
2026-05-01 08:47 34.45127 135.44363 10076 ft 289 kts 54°
2026-05-01 08:47 34.46108 135.46497 9657 ft 284 kts 55°
2026-05-01 08:47 34.47051 135.48564 9258 ft 278 kts 55°
2026-05-01 08:47 34.47972 135.50588 8873 ft 272 kts 55°
2026-05-01 08:48 34.48876 135.52574 8499 ft 265 kts 54°
2026-05-01 08:48 34.49758 135.54509 8133 ft 259 kts 54°
2026-05-01 08:48 34.50616 135.56389 7771 ft 253 kts 54°
2026-05-01 08:48 34.51458 135.58234 7422 ft 246 kts 54°
2026-05-01 08:49 34.52290 135.60057 7101 ft 252 kts 54°
2026-05-01 08:49 34.53160 135.61954 6740 ft 261 kts 54°
2026-05-01 08:49 34.54107 135.63866 6261 ft 267 kts 44°
2026-05-01 08:49 34.55575 135.65067 5885 ft 243 kts
2026-05-01 08:50 34.57216 135.65250 5571 ft 235 kts 351°
2026-05-01 08:50 34.58860 135.65276 5247 ft 237 kts 351°
2026-05-01 08:50 34.60465 135.65015 4867 ft 225 kts 328°
2026-05-01 08:50 34.61672 135.63936 4586 ft 214 kts 311°
2026-05-01 08:51 34.62793 135.62695 4281 ft 216 kts 311°
2026-05-01 08:51 34.63868 135.61499 3988 ft 205 kts 311°
2026-05-01 08:51 34.64902 135.60353 3703 ft 194 kts 310°
2026-05-01 08:51 34.65870 135.59277 3437 ft 180 kts 309°
2026-05-01 08:52 34.66730 135.58263 3195 ft 165 kts 307°
2026-05-01 08:52 34.67533 135.57294 2990 ft 163 kts 307°
2026-05-01 08:52 34.68344 135.56305 2786 ft 167 kts 307°
2026-05-01 08:52 34.69182 135.55284 2563 ft 171 kts 307°
2026-05-01 08:53 34.70036 135.54240 2328 ft 174 kts 308°
2026-05-01 08:53 34.70879 135.53221 2094 ft 167 kts 308°
2026-05-01 08:53 34.71692 135.52243 1862 ft 161 kts 308°
2026-05-01 08:53 34.72467 135.51311 1668 ft 154 kts 307°
2026-05-01 08:54 34.73218 135.50412 1487 ft 147 kts 307°
2026-05-01 08:54 34.73940 135.49547 1296 ft 147 kts 307°
2026-05-01 08:54 34.74665 135.48674 1092 ft 144 kts 307°
2026-05-01 08:54 34.75358 135.47839 893 ft 135 kts 308°
2026-05-01 08:55 34.75833 135.47270 739 ft 128 kts 306°
2026-05-01 08:55 34.76429 135.46562 522 ft 112 kts 307°
2026-05-01 08:55 34.77025 135.45863 281 ft 118 kts 309°
2026-05-01 08:55 34.77656 135.45227 90 ft 131 kts 310°
2026-05-01 08:56 34.78286 135.44504 120 ft 119 kts 298°
2026-05-01 08:56 34.78822 135.43720 31 ft 115 kts 311°
2026-05-01 08:56 34.79230 135.43214 54 ft 55 kts 321°
2026-05-01 08:56 34.79448 135.42955 61 ft 28 kts 317°
2026-05-01 08:57 34.79567 135.42821 53 ft 13 kts 319°
2026-05-01 08:57 34.79632 135.42906 58 ft 26 kts 114°
2026-05-01 08:57 34.79518 135.43056 66 ft 22 kts 139°
2026-05-01 08:57 34.79407 135.43188 62 ft 22 kts 135°
2026-05-01 08:58 34.79290 135.43318 55 ft 22 kts 144°
2026-05-01 08:58 34.79200 135.43393 50 ft 8 kts 124°
2026-05-01 08:58 34.79245 135.43486 53 ft 22 kts 45°
2026-05-01 08:58 34.79332 135.43665 60 ft 22 kts
2026-05-01 08:59 34.79371 135.43631 63 ft 3 kts 312°
2026-05-01 08:59 34.79389 135.43626 64 ft 3 kts 60°
2026-05-01 08:59 34.79389 135.43633 64 ft 0 kts 95°